Date,TemperatureHighF,TemperatureAvgF,TemperatureLowF,DewpointHighF,DewpointAvgF,DewpointLowF,HumidityHigh,HumidityAvg,HumidityLow,PressureMaxIn,PressureMinIn,WindSpeedMaxMPH,WindSpeedAvgMPH,GustSpeedMaxMPH,PrecipitationSumIn
2013-7-1,88.9,76.4,72.7,77.5,71.5,68.9,91,85,67,29.95,29.75,14,2,14,1.51
2013-7-2,89.3,76.4,72.4,78.9,72.2,69.3,92,87,69,30.03,29.91,12,2,12,0.27
2013-7-3,91.1,79.6,71.6,80.1,73.7,68.6,92,83,66,30.07,29.99,13,2,14,0.02
2013-7-4,90.7,81.5,74.0,78.7,73.9,70.1,89,78,62,30.09,30.02,18,4,18,0.00
2013-7-5,91.8,81.6,72.7,78.4,73.6,68.5,90,77,64,30.10,30.03,14,3,14,0.00
2013-7-6,91.1,82.1,73.4,78.9,74.0,69.7,90,77,63,30.07,29.99,12,3,12,0.00
2013-7-7,92.0,82.0,71.6,78.8,73.5,67.6,90,76,62,30.08,30.00,12,2,12,0.00
2013-7-8,91.8,82.6,72.0,79.9,73.5,67.6,89,75,61,30.10,30.02,9,2,9,0.00
2013-7-9,92.7,82.4,72.5,79.5,72.7,67.8,89,74,56,30.10,30.00,10,2,10,0.00
2013-7-10,96.3,81.9,70.2,79.4,72.1,65.4,89,73,55,30.02,29.88,11,2,11,0.00
2013-7-11,95.4,83.1,73.4,78.7,73.1,68.7,87,73,53,29.93,29.79,9,2,11,0.00
2013-7-12,93.2,79.6,73.6,79.1,72.6,68.7,88,80,57,29.85,29.78,7,1,7,0.10
2013-7-13,93.1,79.5,71.6,80.5,72.6,67.9,89,80,61,29.92,29.81,10,1,10,0.31
2013-7-14,89.3,78.4,71.1,77.5,71.8,67.1,90,81,61,30.04,29.89,8,2,10,0.01
2013-7-15,89.1,79.8,71.5,80.3,73.4,66.9,89,81,68,30.08,30.00,11,1,12,0.22
2013-7-16,90.4,82.8,77.0,78.8,75.1,72.5,89,78,64,30.11,30.04,11,2,11,0.00
2013-7-17,90.5,82.5,75.2,78.5,74.0,70.6,89,76,59,30.12,30.00,8,1,8,0.00
2013-7-18,92.3,81.4,71.8,77.9,72.5,67.1,88,75,55,30.04,29.96,8,1,8,0.00
2013-7-19,92.5,81.0,72.9,78.0,72.0,67.4,85,75,57,30.03,29.94,9,1,9,0.01
2013-7-20,94.1,78.4,72.0,79.6,71.6,67.2,88,80,56,30.00,29.91,8,1,8,0.38
2013-7-21,96.1,80.2,72.5,78.9,72.7,68.7,89,79,51,30.01,29.91,11,1,11,0.06
2013-7-22,96.3,80.5,75.4,78.2,73.8,71.3,89,81,52,30.02,29.92,12,1,12,0.22
2013-7-23,92.5,80.3,74.0,78.6,73.8,70.6,89,81,61,29.93,29.81,9,2,9,0.00
2013-7-24,89.3,80.2,74.5,77.0,73.3,69.1,90,80,65,29.81,29.70,9,2,9,0.07
2013-7-25,94.7,82.5,73.1,78.8,73.7,68.7,89,76,54,29.85,29.72,8,1,8,0.03
2013-7-26,94.0,83.1,73.4,80.6,75.0,69.0,89,77,60,29.92,29.83,9,1,9,0.00
2013-7-27,95.2,82.5,74.7,80.9,74.0,68.6,90,76,54,29.90,29.77,8,1,8,0.02
2013-7-28,93.8,79.9,73.3,80.4,73.6,68.8,88,81,61,29.94,29.81,9,1,9,0.10
2013-7-29,94.9,82.1,70.6,80.3,73.4,66.7,89,76,59,30.04,29.92,9,2,9,0.00
2013-7-30,97.2,83.5,74.5,82.3,74.8,70.1,87,76,57,30.06,29.98,7,1,8,0.00
2013-7-31,97.2,79.4,73.1,82.0,73.4,69.7,90,82,59,30.02,29.92,8,1,8,0.17